Flag for Gambia Weather past 2 weeks in Serekunda, Gambia

Now
72 °F

Clear.


Feels Like: 75 °F
Forecast: 68 / 91 °F
Wind: No wind

Location: Banjul / Yundum

Current Time: Apr 1, 2015 at 2:06:59 AM

Latest Report: Apr 1, 2015 at 1:00 AM


Visibility: 4 mi

Pressure: 29.83 "Hg

Humidity: 65%

Dew point: 59 °F

Location of SerekundaLocation

Historic Weather in Serekunda — Graph

°F

Serekunda temperature yesterday

Maximum temperature yesterday: 100 °F (at 4:00 PM)
Minimum temperature yesterday: 63 °F (at 7:00 AM)
Average temperature yesterday: 79 °F

Past Weeks' High & Low Weather Summary

 TemperatureHumidityPressure
High104 °F (Mar 28, 3:00 PM)94% (Mar 31, 6:00 AM)29.98 "Hg (Mar 31, 6:00 AM)
Low63 °F (Mar 24, 5:00 AM)6% (Mar 31, 4:00 PM)29.71 "Hg (Mar 20, 5:00 PM)
Average76 °F53%29.85 "Hg
* Reported Mar 17 1:00 AM — Apr 1 1:00 AM, Serekunda, Weather by CustomWeather, © 2015

Note: Actual official high and low records may vary slightly from our data, if they occured in-between our weather recording intervals... More about our weather records

Advertising

Serekunda weather history for previous 24 hours

 ConditionsComfort  
Time TempWeatherWind HumidityBarometerVisibility
1:00 AM
Wed, Apr 1
72 °FMild.No wind65%29.83 "HgN/A
12:00 AM72 °FClear.No wind65%29.86 "Hg4 mi
11:00 PM
Tue, Mar 31
73 °FClear.8 mph65%29.86 "Hg4 mi
10:00 PM73 °FClear.9 mph61%29.83 "Hg4 mi
9:00 PM75 °FClear.9 mph57%29.80 "Hg4 mi
8:00 PM72 °FClear.9 mph57%29.80 "Hg4 mi
7:00 PM84 °FSunny.14 mph33%29.80 "Hg4 mi
6:00 PM88 °FPleasantly warm.14 mph29%29.77 "Hg4 mi
5:00 PM95 °FSunny.15 mph26%29.77 "Hg4 mi
4:00 PM100 °FSunny.12 mph6%29.77 "Hg4 mi
3:00 PM99 °FSunny.14 mph9%29.80 "Hg4 mi
2:00 PM99 °FSunny.21 mph8%29.83 "Hg6 mi
1:00 PM97 °FSunny.21 mph8%29.86 "Hg4 mi
12:00 PM93 °FSunny.14 mph12%29.86 "Hg4 mi
11:00 AM88 °FSunny.18 mph21%29.89 "Hg6 mi
10:00 AM82 °FPleasantly warm.No wind28%29.89 "HgN/A
9:00 AM72 °FSunny.10 mph83%29.89 "Hg6 mi
8:00 AM64 °FClear.No wind94%29.89 "Hg6 mi
7:00 AM63 °FClear.No wind94%29.89 "Hg6 mi
6:00 AM64 °FClear.No wind94%29.86 "Hg6 mi
5:00 AM66 °FClear.No wind88%29.86 "Hg6 mi
4:00 AM66 °FClear.No wind88%29.86 "Hg6 mi
3:00 AM68 °FClear.6 mph83%29.86 "Hg6 mi
2:00 AM68 °FClear.2 mph83%29.86 "Hg6 mi
Weather by CustomWeather, © 2015

See weather overviewHow to use our weather pages